TimeEDT,TemperatureF,Dew PointF,Humidity,Sea Level PressureIn,VisibilityMPH,Wind Direction,Wind SpeedMPH,Gust SpeedMPH,PrecipitationIn,Events,Conditions,WindDirDegrees,DateUTC
12:54 AM,53.1,46.0,77,30.23,10.0,Calm,Calm,-,N/A,,Clear,0,2013-05-27 04:54:00
1:54 AM,52.0,46.0,80,30.23,10.0,Calm,Calm,-,N/A,,Clear,0,2013-05-27 05:54:00
2:54 AM,51.1,46.0,83,30.22,4.0,Calm,Calm,-,N/A,,Haze,0,2013-05-27 06:54:00
3:54 AM,51.1,45.0,80,30.23,10.0,Calm,Calm,-,N/A,,Clear,0,2013-05-27 07:54:00
4:54 AM,51.1,45.0,80,30.24,9.0,Calm,Calm,-,N/A,,Clear,0,2013-05-27 08:54:00
5:01 AM,51.8,46.4,82,30.24,1.5,Calm,Calm,-,N/A,,Haze,0,2013-05-27 09:01:00
5:19 AM,50.0,44.6,82,30.24,2.0,Calm,Calm,-,N/A,,Haze,0,2013-05-27 09:19:00
5:29 AM,50.0,44.6,82,30.24,9.0,Calm,Calm,-,N/A,,Clear,0,2013-05-27 09:29:00
5:54 AM,48.9,45.0,86,30.25,10.0,Calm,Calm,-,N/A,,Clear,0,2013-05-27 09:54:00
6:54 AM,54.0,50.0,86,30.26,10.0,Calm,Calm,-,N/A,,Clear,0,2013-05-27 10:54:00
7:54 AM,64.0,55.0,73,30.27,10.0,Calm,Calm,-,N/A,,Clear,0,2013-05-27 11:54:00
8:54 AM,69.1,50.0,51,30.28,10.0,SW,5.8,-,N/A,,Clear,230,2013-05-27 12:54:00
9:54 AM,72.0,48.0,43,30.28,10.0,SW,8.1,-,N/A,,Clear,230,2013-05-27 13:54:00
10:54 AM,75.0,48.0,38,30.27,10.0,WSW,5.8,-,N/A,,Clear,250,2013-05-27 14:54:00
11:54 AM,77.0,46.9,34,30.27,10.0,SW,6.9,-,N/A,,Clear,220,2013-05-27 15:54:00
12:54 PM,78.1,46.9,33,30.26,10.0,SSW,9.2,16.1,N/A,,Clear,210,2013-05-27 16:54:00
1:54 PM,78.1,46.0,32,30.25,10.0,SW,9.2,-,N/A,,Clear,220,2013-05-27 17:54:00
2:54 PM,78.1,46.9,33,30.23,10.0,WSW,6.9,-,N/A,,Clear,240,2013-05-27 18:54:00
3:54 PM,78.1,48.0,35,30.22,10.0,SSW,8.1,-,N/A,,Clear,210,2013-05-27 19:54:00
4:54 PM,77.0,48.0,36,30.19,10.0,SSW,6.9,-,N/A,,Scattered Clouds,210,2013-05-27 20:54:00
5:54 PM,77.0,51.1,40,30.19,10.0,SSW,4.6,-,N/A,,Overcast,210,2013-05-27 21:54:00
6:54 PM,75.9,51.1,42,30.19,10.0,SW,5.8,-,N/A,,Overcast,230,2013-05-27 22:54:00
7:54 PM,73.9,52.0,46,30.19,10.0,SSW,5.8,-,N/A,,Partly Cloudy,210,2013-05-27 23:54:00
8:54 PM,68.0,55.9,65,30.18,10.0,Calm,Calm,-,N/A,,Mostly Cloudy,0,2013-05-28 00:54:00
9:54 PM,64.9,55.0,70,30.20,10.0,Calm,Calm,-,N/A,,Scattered Clouds,0,2013-05-28 01:54:00
10:54 PM,71.1,52.0,51,30.22,10.0,South,5.8,-,N/A,,Mostly Cloudy,180,2013-05-28 02:54:00